Погода в Дубиновке

Россия / Оренбургская область     51°31′55″N   56°50′58″E
темп.,
°C
ветер,
м/с
пор.,
м/с
влажн.,
%
обл.,
%
осадки,
мм/ч
давл.,
гПа
погр.,
м
15 апреля, чт
чт1523:00+10в411650 0.0 1028199
02:00+8в33730 0.0 102837
05:00+7в32710 0.0 102819
08:00+7в39680 0.0 1027198
11:00+14вюв68470 0.0 1026429
14:00+17вюв57360 0.0 1024788
17:00+18вюв56320 0.0 10221034
20:00+13в34520 0.0 102144
16 апреля, пт
пт1623:00+11всв22540 0.0 102111
02:00+9всв22560 0.0 102010
05:00+7всв226013 0.0 102010
08:00+9в225863 0.0 102057
11:00+15вюв354163 0.0 1020465
14:00+19вюв34329 0.0 10191197
17:00+19вюв332811 0.0 10181631
20:00+15в3344100 0.0 101838
17 апреля, сб
сб1723:00+11всв375548 0.0 1019106
02:00+10в3106239 0.0 1019167
05:00+8всв5126783 0.0 1020218
08:00+9в612825 0.0 1020348
11:00+13в89625 0.0 1020603
14:00+16в77495 0.0 1020977
17:00+17в66445 0.0 10201291
20:00+13всв49644 0.0 1020184
18 апреля, вс
вс1823:00+10всв511795 0.0 1020268
02:00+8всв37830 0.0 1020126
05:00+7всв22860 0.0 102016
08:00+9всв22775 0.0 1020100
11:00+14ссв22581 0.0 1019599
14:00+17ссз23435 0.0 10171564
17:00+17с544111 0.0 10171727
20:00+12с48475 0.0 1018185
19 апреля, пн
пн1923:00+9с35574 0.0 101874
02:00+6в1016775 0.0 1020624
05:00+3в10167222 0.0 1023644
08:00+3в1116678 0.0 1025769
11:00+4в11145187 0.0 1026965
14:00+6в9114098 0.0 10271256
17:00+6в91036100 0.0 10271345
20:00+4в81238100 0.0 10281019